LFMLLFMU

Guest
Details From LFML - Marseille Provence
To LFMU - Beziers Vias
Flight Number -
Tags generated
Created
Modified
Stats Distance 82 nm / 151 km
Max Altitude 5,800 ft / 1,768 m
Waypoints 3
Social Downloads 3
Likes 0
Share VATSIM

Download

Looking for another format? Having issues loading an existing format? Contact us
Advertisement - Login to hide

Notes

Basic altitude profile: - Ascent Rate: 2500ft/min - Ascent Speed: 250kts - Cruise Altitude: 10000ft - Cruise Speed: 420kts - Descent Rate: 1500ft/min - Descent Speed: 250kts Options: - Use NATs: yes - Use PACOTS: yes - Use low airways: yes - Use high airways: yes

Route

LFML RHONE LFMU

ID Type Via Altitude Latitude Longitude Leg Dist Tot Dist Heading (true) Name
O LFML APT - 0 ft / 0 m 43.43589˚ 5.21328˚ - 0 nm - Marseille Provence
RHONE FIX - 5,800 ft / 1,768 m 43.38603˚ 4.84456˚ 16 nm 16 nm 260° / 259° -
O LFMU APT - 0 ft / 0 m 43.32342˚ 3.35357˚ 65 nm 81 nm 267° / 266° Beziers Vias

Altitude Profile

Advertisement - Login to hide

LFML

Details ICAO LFML (MRS)
Name Marseille Provence
Region France
Timezone Europe/Paris (UTC+1.0)
Stats Elevation 74 ft / 23 m (AMSL)
Location 43.435892° 5.213282°
Runways 2
Magnetic Variation 1.553° E

METAR

LFML 172000Z AUTO 34016KT CAVOK 06/M02 Q1026 BECMG 30017G27KT

Decode

TAF

TAF LFML 171400Z 1715/1821 30017G27KT CAVOK TEMPO 1715/1721 34027G37KT BECMG 1800/1804 30013KT BECMG 1806/1809 VRB03KT TEMPO 1809/1815 4000 SHRA FEW020TCU BKN030 TX10/1813Z TN01/1804Z

Decode

Departure Runways

ID Width Length Bearing (true) Bearing (mag) Surface Threshold Offset Overrun Length
13L 148 ft / 45 m 11,478 ft / 3,499 m 133.99° 132.44° Asphalt 1,115 ft / 340 m 0 ft / 0 m
13R 148 ft / 45 m 7,981 ft / 2,433 m 134.90° 133.35° Asphalt 0 ft / 0 m 0 ft / 0 m
31L 148 ft / 45 m 7,981 ft / 2,433 m 314.91° 313.36° Asphalt 344 ft / 105 m 0 ft / 0 m
31R 148 ft / 45 m 11,478 ft / 3,499 m 314.01° 312.46° Asphalt 2,165 ft / 660 m 0 ft / 0 m

LFMU

Details ICAO LFMU (BZR)
Name Beziers Vias
Region France
Timezone Europe/Paris (UTC+1.0)
Stats Elevation 54 ft / 16 m (AMSL)
Location 43.323422° 3.353573°
Runways 1
Magnetic Variation 1.101° E

METAR

LFMU 172000Z AUTO 35008KT CAVOK 05/M00 Q1030

Decode

TAF

TAF LFMU 171930Z 1719/1815 CNL

Decode

Destination Runways

ID Width Length Bearing (true) Bearing (mag) Surface Threshold Offset Overrun Length
10 115 ft / 35 m 5,955 ft / 1,815 m 94.20° 93.10° Asphalt 459 ft / 140 m 0 ft / 0 m
28 115 ft / 35 m 5,955 ft / 1,815 m 274.22° 273.12° Asphalt 0 ft / 0 m 0 ft / 0 m

Approach Navaids

Runway Type Ident Frequency Range Bearing (true) Bearing (mag) Slope Elevation
10 Localiser ZR 109.35 MHz 18 nm / 33 km 94.52° 93.42° - 50 ft / 15 m (AMSL)
10 Glidescope ZR 109.35 MHz 10 nm / 19 km 94.21° 93.11° 3.00° 92 ft / 28 m (AMSL)
10 DME ZR 109.35 MHz 18 nm / 33 km - - - 92 ft / 28 m (AMSL)

Popular Alternatives